Regional Weather Roundup
Issued by NWS

Home | Current Version | Previous Version | Text Only | Print | Product List | Glossary On
Versions: 1 2 3 4 5 6 7 8 9 10 11 12 13 14 15 16 17 18 19 20 21 22 23 24 25 26 27
000
ASUS46 KPQR 240110
RWROR

OREGON REGIONAL WEATHER ROUNDUP
NATIONAL WEATHER SERVICE PORTLAND OR
600 PM PDT SAT JUL 23 2016

NOTE: "FAIR" INDICATES FEW OR NO CLOUDS BELOW 12,000 FEET WITH
NO SIGNIFICANT WEATHER AND/OR OBSTRUCTIONS TO VISIBILITY.

ORZ001>013-240200-
NORTHWEST OREGON


CITY           SKY/WX    TMP DP  RH WIND       PRES   REMARKS
ASTORIA        CLOUDY    67  55  65 NW14      30.24F
NEWPORT        SUNNY     64  55  72 N14G21    30.23F
PORTLAND       MOSUNNY   73  53  49 N9G20     30.18F
VANCOUVER WA   SUNNY     72  53  51 N8        30.18F
SCAPPOOSE      SUNNY     72  52  49 N13       30.18F
HILLSBORO      SUNNY     73  53  49 N8        30.18F
AURORA         MOSUNNY   75  53  46 N12       30.18F
MCMINNVILLE    SUNNY     77  53  43 N9        30.17F
SALEM          SUNNY     78  51  38 N15       30.14F
CORVALLIS        N/A     81  52  36 NE13G22   30.15F
EUGENE         MOSUNNY   80  48  32 N16       30.13F
$$

ORZ021-028-240200-
SOUTHWEST OREGON


CITY           SKY/WX    TMP DP  RH WIND       PRES   REMARKS
NORTH BEND     SUNNY     66  55  68 N23G33    30.17F
BROOKINGS      SUNNY     79  57  46 NW13      29.99F
ROSEBURG       SUNNY     84  43  23 NE15      30.08F
SEXTON SUMMIT  SUNNY     70  44  39 VRB7G16   30.17F
MEDFORD        SUNNY     91  43  18 NW13      30.01F
$$

ORZ014>016-041-240200-
COLUMBIA GORGE


CITY           SKY/WX    TMP DP  RH WIND       PRES   REMARKS
TROUTDALE      SUNNY     75  54  47 N6        30.17F
THE DALLES     SUNNY     80  50  34 NW16      30.05F
$$

ORZ029>031-041-044-049-050-061>064-502-503-505>511-240200-
EASTERN OREGON


CITY           SKY/WX    TMP DP  RH WIND       PRES   REMARKS
REDMOND        MOSUNNY   83  34  17 N10       30.12F
BEND           MOSUNNY   81  34  18 N6G14     30.13S
PRINEVILLE     MOSUNNY   81  37  21 N10       30.13F
KLAMATH FALLS  SUNNY     85  30  13 NW10      30.13F
LAKEVIEW       MOSUNNY  N/A N/A N/A E5        30.15F
HERMISTON      SUNNY     85  39  19 W3        30.04F
PENDLETON      SUNNY     82  37  20 W9        30.07F
JOHN DAY       SUNNY     83  32  16 NW12G17   30.13F
MEACHAM        SUNNY     73  35  25 VRB3      30.18F
LA GRANDE      SUNNY     81  37  21 N9        30.10F
BAKER CITY     SUNNY     79  39  23 N14       30.12F
BURNS          SUNNY     84  24  11 S10       30.12F
ROME             N/A     88  22   9 NW9       30.08F
ONTARIO        SUNNY     85  43  22 SE5       30.03F
$$




USA.gov is the U.S. government's official web portal to all federal, state and local government web resources and services.